Location: Black Swamp Observatory
(41.3920°N, 84.1250°W)
Time: 03:35:52
(UTC-04:00)

Courier 1B Rocket - Pass Details

Date: 22 January 2022
Orbit: 920 x 1202 km, 28.2° (Epoch: 28 May)

Event Time Altitude Azimuth Distance (km) Brightness Sun altitude
Exits shadow 04:53:22 24° 162° (SSE) 1,887 6.6 -34.1°
Drops below altitude 10° 04:57:17 10° 126° (SE) 2,670 7.8 -33.4°
Sets 05:00:17 0° 114° (ESE) 3,585 8.8 -32.8°
